Home   Weather   Glace Bay   Past weeks

Flag for Canada Past Weather in Glace Bay, Nova Scotia, Canada — Yesterday and Last 2 Weeks

Now
21 °F

Partly sunny.


Feels Like: 7 °F
Forecast: 20 / 27 °F
Wind: 16 mph from North

Location: Sydney

Current Time: Jan 18, 2017 at 8:21:38 am

Latest Report: Jan 18, 2017 at 7:42 am


Visibility: 15 mi

Pressure: 30.24 "Hg

Humidity: 74%

Dew Point: 14 °F

Location of Glace BayLocation

Past Weather in Glace Bay — Graph

°F

Glace Bay Temperature Yesterday

Maximum temperature yesterday: 28 °F (at 2:00 am)
Minimum temperature yesterday: 16 °F (at 6:00 pm)
Average temperature yesterday: 23 °F

High & Low Weather Summary for the Past Weeks

 TemperatureHumidityPressure
High48 °F (Jan 12, 6:43 pm)100% (Jan 4, 10:00 am)30.86 "Hg (Jan 4, 10:00 am)
Low1 °F (Jan 10, 4:00 am)49% (Jan 16, 4:00 pm)29.15 "Hg (Jan 8, 10:16 am)
Average26 °F81%30.08 "Hg
* Reported Jan 3 7:00 am — Jan 18 7:00 am, Glace Bay, Weather by CustomWeather, © 2017

Note: Actual official high and low records may vary slightly from our data, if they occured in-between our weather recording intervals... More about our weather records

Advertising

Glace Bay Weather History for the Previous 24 Hours

Scroll right to see more
 ConditionsComfort  
Time TempWeatherWind HumidityBarometerVisibility
7:00 am
Wed, Jan 18
21 °FLight snow. Passing clouds.14 mph74%30.24 "Hg10 mi
6:00 am23 °FLight snow. Passing clouds.16 mph74%30.22 "Hg10 mi
5:00 am23 °FSnow flurries. Passing clouds.16 mph68%30.23 "Hg10 mi
4:00 am23 °FSnow flurries. Partly cloudy.13 mph80%30.22 "Hg10 mi
3:37 am23 °FSnow flurries. Mostly cloudy.15 mph74%30.22 "Hg10 mi
3:14 am23 °FSnow flurries. Mostly cloudy.16 mph86%30.22 "Hg2 mi
3:00 am23 °FSnow flurries. Mostly cloudy.16 mph74%30.22 "Hg10 mi
2:00 am23 °FSnow flurries. Mostly cloudy.16 mph63%30.21 "Hg10 mi
1:09 am21 °FSnow flurries. Mostly cloudy.13 mph93%30.19 "Hg8 mi
12:57 am21 °FLight snow. Ice fog.16 mph86%30.18 "Hg1 mi
12:39 am21 °FLight snow. Mostly cloudy.17 mph80%30.19 "Hg3 mi
12:00 am21 °FLight snow. Mostly cloudy.16 mph74%30.19 "Hg10 mi
11:00 pm
Tue, Jan 17
21 °FLight snow. Mostly cloudy.15 mph74%30.19 "Hg10 mi
10:00 pm19 °FLight snow. Mostly cloudy.17 mph73%30.19 "Hg10 mi
9:00 pm18 °FLight snow. Overcast.21 mph73%30.18 "Hg10 mi
8:00 pm18 °FLight snow. Overcast.16 mph73%30.17 "Hg10 mi
7:00 pm18 °FLight snow. Passing clouds.21 mph62%30.16 "Hg10 mi
6:00 pm16 °FLight snow. Passing clouds.20 mph67%30.15 "Hg10 mi
5:00 pm18 °FLight snow. Overcast.21 mph62%30.11 "Hg15 mi
4:25 pm18 °FLight snow. Scattered clouds.25 mph68%30.10 "Hg10 mi
4:00 pm18 °FBroken clouds.26 mph62%30.10 "Hg15 mi
3:00 pm19 °FPartly sunny.24 mph63%30.07 "Hg15 mi
2:00 pm21 °FPartly sunny.22 mph58%30.03 "Hg15 mi
1:42 pm21 °FPartly sunny.26 mph58%30.02 "Hg15 mi
1:00 pm21 °FLight snow. Partly sunny.22 mph63%30.01 "Hg10 mi
12:00 pm25 °FLight snow. Broken clouds.20 mph59%30.00 "Hg6 mi
11:37 am23 °FLight snow. Overcast.24 mph68%29.99 "Hg1 mi
11:00 am25 °FPartly sunny.20 mph63%29.99 "Hg15 mi
10:12 am25 °FPartly sunny.13 mph69%29.98 "Hg15 mi
10:00 am25 °FLight snow. Partly sunny.17 mph69%29.98 "Hg10 mi
9:26 am25 °FLight snow. More clouds than sun.17 mph80%29.97 "Hg10 mi
9:13 am27 °FLight snow. Overcast.16 mph80%29.97 "Hg2 mi
8:56 am27 °FLight snow. Mostly cloudy.14 mph86%29.96 "Hg4 mi
8:40 am27 °FLight snow. Mostly cloudy.10 mph93%29.95 "Hg1 mi
8:00 am27 °FLight snow. More clouds than sun.10 mph93%29.94 "Hg3 mi
Weather by CustomWeather, © 2017

See weather overviewHow to use our weather pages